Weather History for KTRM - November, 2011

Change the Weather History Date:

Monday, November 14, 2011

  Actual Average Record
Temperature  
Mean Temperature 59 °F 62 °F  
Max Temperature 73 °F 80 °F 93 °F (2008)
Min Temperature 45 °F 43 °F 25 °F (1994)
Degree Days  
Heating Degree Days 6 4  
Month to date heating degree days 111 39  
Since 1 July heating degree days 116 50  
Cooling Degree Days 0 1  
Month to date cooling degree days 2 29  
Year to date cooling degree days 3797 3682  
Growing Degree Days 10 (Base 50)    
Moisture  
Dew Point 50 °F    
Average Humidity 69    
Maximum Humidity 93    
Minimum Humidity 44    
Precipitation  
Precipitation 0.00 in 0.01 in 0.24 in (1993)
Month to date precipitation 0.23 0.09  
Year to date precipitation 1.81 2.71  
Since 1 July precipitation 0.89 0.89  
Snow  
Snow 0.00 in - - ()
Month to date snowfall 0.0  
Year to date snowfall 0.0  
Since 1 July snowfall 0.0  
Snow Depth 0.00 in    
Sea Level Pressure  
Sea Level Pressure 29.89 in    
Wind  
Wind Speed 2 mph (NW)    
Max Wind Speed 8 mph    
Max Gust Speed 14 mph    
Visibility 10 miles    
Events      
T = Trace of Precipitation, MM = Missing Value Source: NWS Daily Summary

Daily Weather History Graph

Daily Weather History Graph

Search for Another Location

Airport or City:

Trip Planner

Search our weather history database for the weather conditions in past years. The results will help you decide how hot, cold, wet, or windy it might be!

Date:

Astronomy

Nov. 14, 2011 Rise Set
Actual Time 6:15 AM PST 4:42 PM PST
Civil Twilight 5:48 AM PST 5:08 PM PST
Nautical Twilight 5:18 AM PST 5:38 PM PST
Astronomical Twilight 4:49 AM PST 6:08 PM PST
Moon 7:56 PM PST (11/14) 9:33 AM PST (11/14)
Length of Visible Light 11h 19m
Length of Day
10h 27m
Waning Gibbous, 86% of the Moon is Illuminated
Nov 14
Waning Gibbous
Nov 18
Last Quarter
Nov 24
New
Dec 2
First Quarter
Dec 10
Full

Hourly Weather History & Observations

Time (PST) Temp. Windchill Dew Point Humidity Pressure Visibility Wind Dir Wind Speed Gust Speed Precip Events Conditions
12:52 AM 53.1 °F - 50.0 °F 89% 29.92 in 10.0 mi North 5.8 mph - N/A   Clear
1:52 AM 52.0 °F - 48.9 °F 89% 29.91 in 10.0 mi Calm Calm - 0.01 in   Clear
2:52 AM 48.0 °F - 46.0 °F 93% 29.89 in 9.0 mi Calm Calm - N/A   Clear
5:52 AM 46.0 °F 43.9 °F 44.1 °F 93% 29.90 in 10.0 mi West 4.6 mph - N/A   Clear
6:52 AM 50.0 °F - 46.9 °F 89% 29.92 in 10.0 mi Calm Calm - N/A   Clear
7:52 AM 55.9 °F - 50.0 °F 80% 29.93 in 10.0 mi Calm Calm - N/A   Clear
8:52 AM 62.1 °F - 54.0 °F 75% 29.94 in 10.0 mi Calm Calm - N/A   Clear
9:52 AM 64.9 °F - 54.0 °F 68% 29.93 in 10.0 mi Variable 3.5 mph - N/A   Clear
10:52 AM 69.1 °F - 54.0 °F 58% 29.91 in 10.0 mi Variable 3.5 mph - N/A   Clear
11:52 AM 70.0 °F - 53.1 °F 55% 29.88 in 10.0 mi South 4.6 mph - N/A   Clear
12:52 PM 72.0 °F - 51.1 °F 48% 29.85 in 10.0 mi Calm Calm - N/A   Clear
1:52 PM 73.0 °F - 53.1 °F 49% 29.84 in 10.0 mi Variable 4.6 mph - N/A   Clear
2:52 PM 73.0 °F - 50.0 °F 44% 29.83 in 10.0 mi South 5.8 mph - N/A   Clear
3:52 PM 71.1 °F - 51.1 °F 49% 29.84 in 10.0 mi SE 4.6 mph - N/A   Clear
4:52 PM 64.9 °F - 51.1 °F 61% 29.84 in 10.0 mi Calm Calm - N/A   Clear
5:52 PM 60.1 °F - 52.0 °F 75% 29.86 in 10.0 mi Calm Calm - N/A   Clear
6:52 PM 55.9 °F - 50.0 °F 80% 29.88 in 10.0 mi Calm Calm - N/A   Clear
7:52 PM 55.9 °F - 51.1 °F 84% 29.90 in 10.0 mi NW 3.5 mph - N/A   Clear
8:52 PM 55.9 °F - 50.0 °F 80% 29.91 in 10.0 mi Calm Calm - N/A   Clear
9:52 PM 51.1 °F - 48.0 °F 89% 29.93 in 10.0 mi Calm Calm - N/A   Clear
10:52 PM 53.1 °F - 48.9 °F 86% 29.93 in 10.0 mi North 3.5 mph - N/A   Clear
11:52 PM 55.0 °F - 48.9 °F 80% 29.94 in 10.0 mi NNW 4.6 mph - N/A   Clear